Weather History for Aitkin, MN

Change the Weather History Date:

Monday, October 8, 2012

  Actual Average Record
Temperature  
Mean Temperature 43 °F -  
Max Temperature 51 °F 58 °F 80 °F (2010)
Min Temperature 35 °F 36 °F 17 °F (2000)
Degree Days  
Heating Degree Days 22    
Moisture  
Dew Point 30 °F    
Average Humidity 60    
Maximum Humidity 76    
Minimum Humidity 49    
Precipitation  
Precipitation 0.01 in - - ()
Sea Level Pressure  
Sea Level Pressure 29.64 in    
Wind  
Wind Speed 6 mph (South)    
Max Wind Speed 15 mph    
Max Gust Speed 20 mph    
Visibility 10 miles    
Events Rain    
Averages and records for this station are not official NWS values.
T = Trace of Precipitation, MM = Missing Value Source: NWS Daily Summary

Daily Weather History Graph

Daily Weather History Graph

Search for Another Location

Airport:

Trip Planner

Search our weather history database for the weather conditions in past years. The results will help you decide how hot, cold, wet, or windy it might be!

Date:

Astronomy

Oct. 08, 2012 Rise Set
Actual Time 7:23 AM CDT 6:40 PM CDT
Civil Twilight 6:53 AM CDT 7:10 PM CDT
Nautical Twilight 6:18 AM CDT 7:45 PM CDT
Astronomical Twilight 5:42 AM CDT 8:20 PM CDT
Moon No Moon Rise 2:51 PM CDT (10/8)
Length of Visible Light 12h 17m
Length of Day
11h 16m
Last Quarter, 46% of the Moon is Illuminated
Oct 8
Last Quarter
Oct 15
New
Oct 21
First Quarter
Oct 29
Full
Nov 6
Last Quarter

Hourly Weather History & Observations

Time (CDT) Temp. Windchill Dew Point Humidity Pressure Visibility Wind Dir Wind Speed Gust Speed Precip Events Conditions
12:13 AM 39.2 °F 35.0 °F 21.2 °F 49% 29.78 in 10.0 mi South 5.8 mph - N/A   Clear
12:32 AM 39.2 °F 35.0 °F 21.2 °F 49% 29.78 in 10.0 mi South 5.8 mph - N/A   Clear
12:53 AM 39.2 °F 35.0 °F 23.0 °F 52% 29.77 in 10.0 mi South 5.8 mph - N/A   Clear
1:13 AM 39.2 °F 35.0 °F 24.8 °F 56% 29.77 in 10.0 mi South 5.8 mph - N/A   Clear
1:32 AM 39.2 °F 35.0 °F 24.8 °F 56% 29.76 in 10.0 mi SSE 5.8 mph - N/A   Clear
1:53 AM 39.2 °F 35.0 °F 24.8 °F 56% 29.76 in 10.0 mi South 5.8 mph - N/A   Clear
2:13 AM 39.2 °F 35.9 °F 23.0 °F 52% 29.76 in 10.0 mi South 4.6 mph - N/A   Clear
2:32 AM 39.2 °F 37.0 °F 21.2 °F 49% 29.76 in 10.0 mi South 3.5 mph - N/A   Clear
2:53 AM 39.2 °F 35.9 °F 21.2 °F 49% 29.75 in 10.0 mi South 4.6 mph - N/A   Clear
3:13 AM 37.4 °F 34.9 °F 21.2 °F 52% 29.74 in 10.0 mi SSW 3.5 mph - N/A   Clear
3:32 AM 37.4 °F - 21.2 °F 52% 29.74 in 10.0 mi Calm Calm - N/A   Clear
3:53 AM 37.4 °F 34.9 °F 23.0 °F 56% 29.73 in 10.0 mi South 3.5 mph - N/A   Scattered Clouds
4:12 AM 35.6 °F 32.8 °F 21.2 °F 56% 29.72 in 10.0 mi South 3.5 mph - N/A   Scattered Clouds
4:32 AM 35.6 °F - 21.2 °F 56% 29.72 in 10.0 mi Calm Calm - N/A   Scattered Clouds
4:53 AM 37.4 °F 34.9 °F 21.2 °F 52% 29.71 in 10.0 mi South 3.5 mph - N/A   Clear
5:12 AM 37.4 °F 33.8 °F 24.8 °F 60% 29.70 in 10.0 mi South 4.6 mph - N/A   Clear
5:32 AM 39.2 °F 35.0 °F 24.8 °F 56% 29.70 in 10.0 mi South 5.8 mph - N/A   Clear
5:52 AM 39.2 °F 35.9 °F 24.8 °F 56% 29.69 in 10.0 mi South 4.6 mph - N/A   Clear
6:12 AM 39.2 °F 37.0 °F 24.8 °F 56% 29.69 in 10.0 mi South 3.5 mph - N/A   Scattered Clouds
6:33 AM 41.0 °F 38.0 °F 24.8 °F 53% 29.68 in 10.0 mi South 4.6 mph - N/A   Mostly Cloudy
6:52 AM 41.0 °F 37.1 °F 24.8 °F 53% 29.68 in 10.0 mi South 5.8 mph - N/A   Scattered Clouds
7:12 AM 41.0 °F 38.0 °F 26.6 °F 57% 29.67 in 10.0 mi South 4.6 mph - N/A   Mostly Cloudy
7:33 AM 42.8 °F 39.3 °F 26.6 °F 53% 29.67 in 10.0 mi South 5.8 mph - N/A   Overcast
7:53 AM 42.8 °F 39.3 °F 26.6 °F 53% 29.67 in 10.0 mi South 5.8 mph - N/A   Overcast
8:12 AM 42.8 °F 39.3 °F 28.4 °F 57% 29.66 in 10.0 mi South 5.8 mph - N/A   Overcast
8:33 AM 42.8 °F 40.1 °F 28.4 °F 57% 29.67 in 10.0 mi South 4.6 mph - N/A   Overcast
8:53 AM 42.8 °F 38.6 °F 28.4 °F 57% 29.66 in 10.0 mi South 6.9 mph - N/A   Overcast
9:12 AM 42.8 °F 39.3 °F 28.4 °F 57% 29.65 in 10.0 mi SSE 5.8 mph - N/A   Overcast
9:33 AM 44.6 °F 40.2 °F 28.4 °F 53% 29.64 in 10.0 mi South 8.1 mph - N/A   Overcast
9:53 AM 44.6 °F 38.8 °F 28.4 °F 53% 29.63 in 10.0 mi South 11.5 mph 19.6 mph N/A   Mostly Cloudy
10:12 AM 44.6 °F 39.2 °F 28.4 °F 53% 29.62 in 10.0 mi South 10.4 mph - N/A   Scattered Clouds
10:33 AM 44.6 °F 39.7 °F 28.4 °F 53% 29.61 in 10.0 mi South 9.2 mph - N/A   Mostly Cloudy
11:12 AM 44.6 °F 38.8 °F 28.4 °F 53% 29.60 in 10.0 mi South 11.5 mph - N/A   Scattered Clouds
11:33 AM 46.4 °F 41.1 °F 28.4 °F 50% 29.59 in 10.0 mi SE 11.5 mph - N/A   Scattered Clouds
11:52 AM 46.4 °F 41.5 °F 30.2 °F 53% 29.57 in 10.0 mi SSE 10.4 mph - N/A   Mostly Cloudy
12:13 PM 46.4 °F 41.9 °F 30.2 °F 53% 29.58 in 10.0 mi SSE 9.2 mph - N/A   Mostly Cloudy
12:33 PM 44.6 °F 38.8 °F 30.2 °F 57% 29.56 in 10.0 mi SSE 11.5 mph - N/A   Light Drizzle
12:52 PM 46.4 °F 40.1 °F 30.2 °F 53% 29.54 in 10.0 mi SSE 15.0 mph - N/A   Overcast
1:33 PM 46.4 °F 40.7 °F 33.8 °F 62% 29.54 in 10.0 mi SSE 12.7 mph 19.6 mph N/A   Drizzle
1:52 PM 44.6 °F 38.8 °F 35.6 °F 71% 29.51 in 10.0 mi SE 11.5 mph 17.3 mph N/A Rain Light Rain
2:13 PM 46.4 °F 42.9 °F 35.6 °F 66% 29.53 in 10.0 mi South 6.9 mph - N/A Rain Light Rain
2:33 PM 46.4 °F 42.9 °F 37.4 °F 71% 29.53 in 10.0 mi South 6.9 mph - N/A   Mostly Cloudy
2:52 PM 48.2 °F - 35.6 °F 62% 29.52 in 10.0 mi South 12.7 mph 17.3 mph N/A Rain Rain
3:13 PM 46.4 °F 41.9 °F 37.4 °F 71% 29.52 in 10.0 mi South 9.2 mph 16.1 mph 0.01 in Rain Light Rain
3:33 PM 46.4 °F 42.4 °F 37.4 °F 71% 29.52 in 10.0 mi South 8.1 mph - 0.01 in   Light Drizzle
3:52 PM 48.2 °F - 37.4 °F 66% 29.53 in 10.0 mi SSW 8.1 mph - 0.01 in   Overcast
4:13 PM 50.0 °F - 39.2 °F 66% 29.52 in 10.0 mi South 9.2 mph 16.1 mph N/A   Overcast
4:33 PM 50.0 °F - 39.2 °F 66% 29.51 in 10.0 mi SSW 8.1 mph - N/A   Mostly Cloudy
4:52 PM 50.0 °F - 39.2 °F 66% 29.52 in 10.0 mi SW 10.4 mph - N/A   Overcast
5:13 PM 51.8 °F - 39.2 °F 62% 29.53 in 10.0 mi SW 8.1 mph - N/A   Overcast
5:33 PM 51.8 °F - 39.2 °F 62% 29.54 in 10.0 mi SW 5.8 mph - N/A   Overcast
5:52 PM 51.8 °F - 39.2 °F 62% 29.55 in 10.0 mi SW 6.9 mph - N/A   Overcast
6:12 PM 51.8 °F - 39.2 °F 62% 29.56 in 10.0 mi WSW 10.4 mph 17.3 mph N/A   Overcast
7:12 PM 48.2 °F - 39.2 °F 71% 29.60 in 10.0 mi West 9.2 mph 18.4 mph N/A   Overcast
7:33 PM 48.2 °F - 37.4 °F 66% 29.62 in 10.0 mi West 13.8 mph 19.6 mph N/A   Overcast
7:52 PM 48.2 °F - 35.6 °F 62% 29.63 in 10.0 mi West 6.9 mph - N/A   Overcast
8:12 PM 46.4 °F 42.9 °F 35.6 °F 66% 29.63 in 10.0 mi WSW 6.9 mph - N/A   Scattered Clouds
8:32 PM 44.6 °F 42.2 °F 35.6 °F 71% 29.64 in 10.0 mi WSW 4.6 mph - N/A   Clear
8:52 PM 44.6 °F 43.1 °F 35.6 °F 71% 29.64 in 10.0 mi WSW 3.5 mph - N/A   Clear
9:13 PM 44.6 °F 43.1 °F 35.6 °F 71% 29.65 in 10.0 mi WSW 3.5 mph - N/A   Clear
9:32 PM 42.8 °F - 35.6 °F 76% 29.65 in 10.0 mi Calm Calm - N/A   Clear
9:52 PM 42.8 °F 41.1 °F 35.6 °F 76% 29.65 in 10.0 mi SW 3.5 mph - N/A   Mostly Cloudy
10:13 PM 44.6 °F 42.2 °F 35.6 °F 71% 29.66 in 10.0 mi WSW 4.6 mph - N/A   Overcast
10:52 PM 44.6 °F 42.2 °F 37.4 °F 76% 29.65 in 10.0 mi SW 4.6 mph - N/A   Overcast
11:13 PM 42.8 °F 41.1 °F 35.6 °F 76% 29.65 in 10.0 mi SW 3.5 mph - N/A   Scattered Clouds
11:32 PM 42.8 °F 41.1 °F 35.6 °F 76% 29.65 in 10.0 mi SSW 3.5 mph - N/A   Clear
11:53 PM 42.8 °F 39.3 °F 35.6 °F 76% 29.65 in 10.0 mi SW 5.8 mph - N/A   Clear